Погода в Слуцке

Погода в Слуцке : погода сейчас, прогноз погоды и архив. Всё, что Вы хотите узнать о погоде в Слуцке!

Хотите узнать прогноз погоды в Слуцке? Тогда Вам сюда: Погода в Слуцке

Поиск расширенной информации на нашем сайте:

Другие новости

Новости СМИ2

Главная страница сайта

Новости сайта

02.10.2013

Напоминаем, что на нашем новом сайте вы можете получить высокодетализированные прогнозы погоды по пунктам России, СНГ и мира (включающие важные для авиации метеовеличины, такие как направление и скорость ветра, видимость, явления погоды, количество и форма облачности, нижняя и верхняя граница облачности), а также ознакомиться с разнообразными материалами по авиационной метеорологии и подборкой полезных ссылок на эту тему.

Сайт Метеоцентр.Азия посвящён разработке технологий оптимизации авиаметеорологического обслуживания, включая проектирование и перспективное создание нескольких автоматизированных авиаметеорологических систем:
- система выпуска высокодетальных прогностических карт явлений погоды для нижнего воздушного пространства по России и ближнему зарубежью;
- система верификации прогнозов TAF (выпускаемых синоптиками официальных АМСГ РФ и ближнего зарубежья) и AUTOTAF (выпускаемых сайтом Метеоцентр.Азия) - выявление ошибок, онлайн-сопоставление с фактической погодой METAR, автоматическое внесение коррективов в прогнозы при резком отклонении фактической погоды от прогноза, подсчёт оправдываемости прогнозов по элементам и в целом;
- система обработки, анализа и отображения авиаметеорологической информации для применения провайдерами метеорологической информации.

Рекомендуем: Купить броненакладки апекс коллекция престиж купить.

Погода в Слуцке - сегодня

Время (UTC), дата Ветер
(°,м/с) 
Видим.   Явления Облачность Т
(°С)
Тd
(°С)
f(%) Тe
(°С)
Pmin
(гПа)
dP
(гПа)
Po
(мм)
O2
(г/м3)
Тmin Tmax R s Состояние
почвы
15 01.08.15 310 (СЗ) 20000 м    9/8 600 м верхняя 
[Sc diur, vesp|Ci fib]
+19.7 +8.1 47 +21  1020.2  -0.1  751  281           
18 01.08.15 350 (С) 15000 м    9/5 600 м верхняя 
[Sc diur, vesp|Ci sp]
+16.6 +10.4 67 +20  1020.9  0.5  751  283    +21.3       
21 01.08.15 350 (С) 12000 м    3/0 верхняя 
[Ci fib]
+11.2 +8.8 85 +12  1023.1  1.7  753  290           
00 02.08.15 тихо ()   12000 м    3/0 верхняя 
[Ci fib]
+8.8 +7.7 93 +9  1024.1  0.9  753  293           
03 02.08.15 тихо ()   5000 м  дымка  3/0 верхняя 
[Ci fib]
+5.8 +5.1 95 +6  1025.3  0.9  754  297           
06 02.08.15 090 (В) 15000 м    3/0 верхняя 
[Ci sp]
+16.7 +8.2 57 +18  1025.2  0.7  754  285  +5.1         
09 02.08.15 320 (СЗ) 20000 м    6/3 600 м верхняя 
[Cu hum|Ci fib]
+21.2 +9 46 +21  1025.1  0.2  755  281           
12 02.08.15 220 (ЮЗ) 18000 м    5/0 верхняя 
[Ci sp]
+24.2 +8.8 37 +24  1023.8  -1.1  754  278           
15 02.08.15 250 (З) 20000 м    1/1 600 м 
[Cu hum]
+26 +8.5 33 +26  1022.8  -0.8  753  276           
18 02.08.15 100 (В) 15000 м    3/0 верхняя 
[Ci sp]
+21.8 +11.2 51 +24  1022.6  -0.5  753  279    +26       
21 02.08.15 080 (В) 15000 м    ясно 
+16.4 +10.2 67 +18  1023.4  0.4  753  284           
00 03.08.15 тихо ()   10 км    4/0 верхняя 
[Ci fib]
+14.4 +9.5 72 +15  1023.3  -0.2  753  286           
03 03.08.15 тихо ()   10 км    8/0 средняя, верхняя 
[Ac cast|Ci sp]
+11.8 +9.7 87 +13  1022.6  -0.8  752  289           
06 03.08.15 140 (ЮВ) 11000 м    9/0 средняя 
[Ac und]
+17.6 +13.1 75 +24  1022.3  0.1  752  282  +11.6         
09 03.08.15 220 (ЮЗ) 15000 м    8/0 средняя 
[Ac trans]
+27.5 +9 31 +28  1021.4  -0.4  752  274           
12 03.08.15 200 (Ю) 12000 м    8/0 средняя, верхняя 
[Ac trans|Ci sp]
+29.7 +9.4 28 +30  1020.3  -0.8  752  272           
15 03.08.15 230 (ЮЗ) 15000 м    8/3 600 м средняя 
[Sc|Ac trans]
+29.6 +8.9 27 +30  1019.5  -0.9  751  271           
18 03.08.15 тихо ()   15000 м    4/0 средняя, верхняя 
[Ac cast|Ci sp]
+24.9 +14.3 52 +32  1019.9  0.1  751  274    +30.7       
21 03.08.15 тихо ()   13000 м    3/0 верхняя 
[Ci fib]
+20.7 +13 61 +26  1020.4  0.3  751  279           
00 04.08.15 070 (В) 12000 м    5/0 верхняя 
[Ci sp]
+15.2 +11.9 81 +21  1021.1  0.3  751  285           
03 04.08.15 070 (В) 10 км    5/0 средняя, верхняя 
[Ac cast|Ci fib]
+14.4 +12.2 87 +20  1021  -0.1  751  285           
06 04.08.15 тихо ()   14000 м    5/0 верхняя 
[Ci fib]
+23.7 +13 51 +29  1020.4  751  276  +14.3         
09 04.08.15 200 (Ю) 15000 м    8/5 1000 м верхняя 
[Cu hum|Ci sp]
+29.6 +13.3 37 +35  1019.7  -0.3  751  270           
12 04.08.15 270 (З) 18000 м    9/5 600 м верхняя 
[Cu hum|Ci sp]
+30 +12.6 34 +35  1018.7  -1  750  270           
15 04.08.15 340 (С) 18000 м    6/3 1000 м верхняя 
[Cu hum|Ci fib]
+31.3 +14.2 35 +39  1017.7  -0.9  750  268           
Время (UTC), дата Ветер
(°,м/с) 
Видим.   Явления Облачность Т
(°С)
Тd
(°С)
f(%) Тe
(°С)
Pmin
(гПа)
dP
(гПа)
Po
(мм)
O2
(г/м3)
Тmin Tmax R s Состояние
почвы

Для получения пояснительной информации подведите курсор к названию столбца.

ПОГОДА в Слуцке - архив

Всё, что Вы хотите узнать о погоде в Слуцке - удобно и подробно!

Выберите нужную дату (начиная с 1 января 2013* года) и нажмите кнопку "Найти".
Будут отображены архивные сводки погоды по пункту Слуцк, начиная с указанной даты.


Отображать данные в формате CSV (для использования в таблицах Excel)


Внимание! Наш архив погоды предназначен исключительно для личного некоммерческого использования в познавательных целях. Если Вам необходимы официальные справки о состоянии погоды (для производственных, юридических, коммерческих и т.п. целей), обращайтесь в органы Росгидромета.

*Примечание: данная дата относится к архиву по метеостанциям СССР (Россия, СНГ, Балтия).
Архив по метеостанциям Зарубежной Европы и Азии (кроме Китая) хранится 10 дней, по другим регионам земного шара (Китай, Африка, Америка, Австралия, Океания) - 1 день.

Слуцк - район местоположения метеостанции


Название, широта, долгота, высота метеостанции:
Слуцк 53°ш. 27.6°д. 162 м над ур. моря [Беларусь]

Дополнительная информация

В oтличие oт бoльшинства пoгoдных сайтoв мы публикуем пoдрoбную метеoинфoрмацию в детальнoм прoфессиoнальнoм фoрмате.

Характеристики температуры и влажнoсти вoздуха измеряются на высoте 2 м в тени вдали oт зданий и деревьев.
Скoрoсть ветра измеряется на высoте 10 м (на урoвне рoста челoвека скoрoсть ветра ниже в 1.5-2 раза). Если метеoстанция нахoдится в гoрoде или в лесу, тo скoрoсть ветра занижена на 2-4 м/с пo сравнению с oткрытым местoм. Скoрoсть ветра над акватoриями крупных рек и oзёр, а также на вершинах хoлмoв на 2-5 м/с выше, чем в oбычных услoвиях.
Атмoсфернoе давление в разных тoчках местнoсти мoжет значительнo oтличаться oт давления на метеoстанции, в зависимoсти oт услoвий рельефа (при пoдъёме на 10 м давление пoнижается примернo на 1 мм рт.ст.).